Weather History for KPDT - July, 2013

Change the Weather History Date:

Tuesday, July 2, 2013

  Actual Average Record
Temperature  
Mean Temperature 88 °F 69 °F  
Max Temperature 106 °F 84 °F 106 °F (2013)
Min Temperature 70 °F 55 °F 42 °F (1955)
Degree Days  
Heating Degree Days 0 1  
Month to date heating degree days 0 2  
Since 1 June heating degree days 80 85  
Since 1 July heating degree days 0 2  
Cooling Degree Days 23 5  
Month to date cooling degree days 43 10  
Year to date cooling degree days 169 112  
Since 1 June cooling degree days 138 89  
Growing Degree Days 38 (Base 50)    
Moisture  
Dew Point 57 °F    
Average Humidity 44    
Maximum Humidity 68    
Minimum Humidity 20    
Precipitation  
Precipitation 0.00 in 0.02 in 0.37 in (1966)
Month to date precipitation 0.00 0.03  
Year to date precipitation 4.91 7.42  
Snow  
Snow 0.00 in 0.00 in 0.00 in (2002)
Month to date snowfall 0.0 0.0  
Year to date snowfall 0.2 7.7  
Since 1 July snowfall 0.0 0.0  
Snow Depth -    
Sea Level Pressure  
Sea Level Pressure 29.89 in    
Wind  
Wind Speed 8 mph (WSW)    
Max Wind Speed 20 mph    
Max Gust Speed 26 mph    
Visibility 10 miles    
Events      
T = Trace of Precipitation, MM = Missing Value Source: NWS Daily Summary

Daily Weather History Graph

Daily Weather History Graph

Search for Another Location

Airport or City:

Trip Planner

Search our weather history database for the weather conditions in past years. The results will help you decide how hot, cold, wet, or windy it might be!

Date:

Astronomy

Jul. 02, 2013 Rise Set
Actual Time 5:10 AM PDT 8:48 PM PDT
Civil Twilight 4:32 AM PDT 9:25 PM PDT
Nautical Twilight 3:42 AM PDT 10:16 PM PDT
Astronomical Twilight 2:34 AM PDT 11:23 PM PDT
Moon 1:24 AM PDT (7/2) 3:59 PM PDT (7/2)
Length of Visible Light 16h 53m
Length of Day
15h 37m
Waning Crescent, 25% of the Moon is Illuminated
Jul 2
Waning Crescent
Jul 8
New
Jul 15
First Quarter
Jul 22
Full
Jul 29
Last Quarter

Hourly Weather History & Observations

Time (PDT) Temp. Heat Index Dew Point Humidity Pressure Visibility Wind Dir Wind Speed Gust Speed Precip Events Conditions
12:53 AM 75.9 °F - 61.0 °F 60% 29.88 in 10.0 mi NNE 4.6 mph - N/A   Clear
1:53 AM 75.0 °F - 60.1 °F 60% 29.90 in 10.0 mi SE 5.8 mph - N/A   Clear
2:53 AM 73.0 °F - 61.0 °F 66% 29.90 in 10.0 mi SE 6.9 mph - N/A   Clear
3:53 AM 73.0 °F - 62.1 °F 68% 29.90 in 10.0 mi ESE 5.8 mph - N/A   Clear
4:53 AM 73.0 °F - 62.1 °F 68% 29.92 in 10.0 mi ESE 3.5 mph - N/A   Clear
5:53 AM 73.0 °F - 62.1 °F 68% 29.92 in 10.0 mi SE 3.5 mph - N/A   Clear
7:53 AM 82.0 °F 83.0 °F 62.1 °F 51% 29.95 in 10.0 mi Calm Calm - N/A   Clear
8:53 AM 86.0 °F 85.7 °F 60.1 °F 41% 29.95 in 10.0 mi Calm Calm - N/A   Clear
9:53 AM 91.0 °F 90.5 °F 60.1 °F 35% 29.94 in 10.0 mi West 6.9 mph - N/A   Clear
10:53 AM 93.0 °F 92.7 °F 60.1 °F 33% 29.94 in 10.0 mi North - - N/A   Clear
11:53 AM 96.1 °F 96.4 °F 61.0 °F 31% 29.93 in 10.0 mi Variable 6.9 mph 17.3 mph N/A   Clear
12:53 PM 98.1 °F 97.7 °F 59.0 °F 27% 29.92 in 10.0 mi Variable 4.6 mph - N/A   Clear
1:53 PM 100.0 °F 99.7 °F 57.9 °F 25% 29.90 in 10.0 mi Variable 4.6 mph - N/A   Clear
2:53 PM 102.0 °F 101.1 °F 55.9 °F 22% 29.88 in 10.0 mi North - - N/A   Clear
3:53 PM 102.9 °F 101.4 °F 54.0 °F 20% 29.86 in 10.0 mi North - - N/A   Clear
4:53 PM 104.0 °F 102.9 °F 55.9 °F 20% 29.83 in 10.0 mi West 11.5 mph 18.4 mph N/A   Clear
5:53 PM 102.0 °F 101.6 °F 57.9 °F 23% 29.83 in 10.0 mi NW 11.5 mph - N/A   Clear
6:53 PM 100.0 °F 97.9 °F 54.0 °F 21% 29.82 in 10.0 mi WNW 8.1 mph - N/A   Clear
7:53 PM 96.1 °F - 50.0 °F 21% 29.82 in 10.0 mi WNW 10.4 mph - N/A   Clear
8:53 PM 91.9 °F - 48.0 °F 22% 29.83 in 10.0 mi West 15.0 mph - N/A   Clear
9:53 PM 89.1 °F - 48.0 °F 24% 29.85 in 10.0 mi West 17.3 mph - N/A   Clear
10:53 PM 84.9 °F - 51.1 °F 31% 29.88 in 10.0 mi SW 10.4 mph - N/A   Clear
11:53 PM 82.9 °F - 50.0 °F 32% 29.90 in 10.0 mi West 13.8 mph - N/A   Clear